﻿測定場所 (Monitoring sites),日付 (Measurement date),時間 (Measurement time),線量率 最大値 (max) μGy/h,線量率 最小値 (min) μGy/h,線量率 平均値 (average) μGy/h,
新宿 (Shinjuku),2018-03-04,23:01～24:00,0.0399,0.0337,0.0366,
新宿 (Shinjuku),2018-03-04,22:01～23:00,0.0401,0.0349,0.0368,
新宿 (Shinjuku),2018-03-04,21:01～22:00,0.0387,0.0344,0.0363,
新宿 (Shinjuku),2018-03-04,20:01～21:00,0.0389,0.0346,0.0365,
新宿 (Shinjuku),2018-03-04,19:01～20:00,0.0407,0.0346,0.0366,
新宿 (Shinjuku),2018-03-04,18:01～19:00,0.0391,0.0345,0.0362,
新宿 (Shinjuku),2018-03-04,17:01～18:00,0.0417,0.0334,0.0364,
新宿 (Shinjuku),2018-03-04,16:01～17:00,0.0399,0.0345,0.0365,
新宿 (Shinjuku),2018-03-04,15:01～16:00,0.0391,0.0346,0.0366,
新宿 (Shinjuku),2018-03-04,14:01～15:00,0.0398,0.0343,0.0367,
新宿 (Shinjuku),2018-03-04,13:01～14:00,0.0399,0.0348,0.0367,
新宿 (Shinjuku),2018-03-04,12:01～13:00,0.0394,0.0347,0.0367,
新宿 (Shinjuku),2018-03-04,11:01～12:00,0.0392,0.0344,0.0365,
新宿 (Shinjuku),2018-03-04,10:01～11:00,0.0412,0.0351,0.0371,
新宿 (Shinjuku),2018-03-04,09:01～10:00,0.0419,0.0357,0.0376,
新宿 (Shinjuku),2018-03-04,08:01～09:00,0.0417,0.0357,0.0382,
新宿 (Shinjuku),2018-03-04,07:01～08:00,0.0416,0.0357,0.0378,
新宿 (Shinjuku),2018-03-04,06:01～07:00,0.0397,0.0352,0.0374,
新宿 (Shinjuku),2018-03-04,05:01～06:00,0.0404,0.0354,0.0373,
新宿 (Shinjuku),2018-03-04,04:01～05:00,0.0422,0.0354,0.0372,
新宿 (Shinjuku),2018-03-04,03:01～04:00,0.0413,0.0344,0.0372,
新宿 (Shinjuku),2018-03-04,02:01～03:00,0.0415,0.0352,0.0371,
新宿 (Shinjuku),2018-03-04,01:01～02:00,0.0424,0.0348,0.0371,
新宿 (Shinjuku),2018-03-04,00:01～01:00,0.0406,0.0348,0.0372,
新宿 (Shinjuku),2018-03-03,23:01～24:00,0.0395,0.0353,0.0369,
新宿 (Shinjuku),2018-03-03,22:01～23:00,0.0410,0.0342,0.0368,
新宿 (Shinjuku),2018-03-03,21:01～22:00,0.0399,0.0348,0.0368,
新宿 (Shinjuku),2018-03-03,20:01～21:00,0.0392,0.0350,0.0368,
新宿 (Shinjuku),2018-03-03,19:01～20:00,0.0402,0.0340,0.0365,
新宿 (Shinjuku),2018-03-03,18:01～19:00,0.0396,0.0343,0.0367,
新宿 (Shinjuku),2018-03-03,17:01～18:00,0.0391,0.0346,0.0366,
新宿 (Shinjuku),2018-03-03,16:01～17:00,0.0389,0.0344,0.0368,
新宿 (Shinjuku),2018-03-03,15:01～16:00,0.0401,0.0331,0.0366,
新宿 (Shinjuku),2018-03-03,14:01～15:00,0.0391,0.0336,0.0366,
新宿 (Shinjuku),2018-03-03,13:01～14:00,0.0410,0.0337,0.0371,
新宿 (Shinjuku),2018-03-03,12:01～13:00,0.0404,0.0346,0.0369,
新宿 (Shinjuku),2018-03-03,11:01～12:00,0.0412,0.0352,0.0368,
新宿 (Shinjuku),2018-03-03,10:01～11:00,0.0400,0.0347,0.0370,
新宿 (Shinjuku),2018-03-03,09:01～10:00,0.0411,0.0357,0.0374,
新宿 (Shinjuku),2018-03-03,08:01～09:00,0.0411,0.0344,0.0374,
新宿 (Shinjuku),2018-03-03,07:01～08:00,0.0404,0.0350,0.0369,
新宿 (Shinjuku),2018-03-03,06:01～07:00,0.0389,0.0351,0.0366,
新宿 (Shinjuku),2018-03-03,05:01～06:00,0.0401,0.0340,0.0366,
新宿 (Shinjuku),2018-03-03,04:01～05:00,0.0406,0.0344,0.0366,
新宿 (Shinjuku),2018-03-03,03:01～04:00,0.0388,0.0342,0.0364,
新宿 (Shinjuku),2018-03-03,02:01～03:00,0.0401,0.0339,0.0367,
新宿 (Shinjuku),2018-03-03,01:01～02:00,0.0392,0.0337,0.0364,
新宿 (Shinjuku),2018-03-03,00:01～01:00,0.0401,0.0342,0.0365,
新宿 (Shinjuku),2018-03-02,23:01～24:00,0.0404,0.0352,0.0367,
新宿 (Shinjuku),2018-03-02,22:01～23:00,0.0390,0.0343,0.0365,
新宿 (Shinjuku),2018-03-02,21:01～22:00,0.0404,0.0339,0.0364,
新宿 (Shinjuku),2018-03-02,20:01～21:00,0.0388,0.0343,0.0365,
新宿 (Shinjuku),2018-03-02,19:01～20:00,0.0414,0.0346,0.0364,
新宿 (Shinjuku),2018-03-02,18:01～19:00,0.0394,0.0348,0.0365,
新宿 (Shinjuku),2018-03-02,17:01～18:00,0.0394,0.0336,0.0363,
新宿 (Shinjuku),2018-03-02,16:01～17:00,0.0395,0.0338,0.0364,
新宿 (Shinjuku),2018-03-02,15:01～16:00,0.0396,0.0345,0.0367,
新宿 (Shinjuku),2018-03-02,14:01～15:00,0.0399,0.0345,0.0366,
新宿 (Shinjuku),2018-03-02,13:01～14:00,0.0412,0.0346,0.0367,
新宿 (Shinjuku),2018-03-02,12:01～13:00,0.0406,0.0348,0.0369,
新宿 (Shinjuku),2018-03-02,11:01～12:00,0.0398,0.0349,0.0367,
新宿 (Shinjuku),2018-03-02,10:01～11:00,0.0399,0.0343,0.0367,
新宿 (Shinjuku),2018-03-02,09:01～10:00,0.0398,0.0347,0.0368,
新宿 (Shinjuku),2018-03-02,08:01～09:00,0.0402,0.0343,0.0366,
新宿 (Shinjuku),2018-03-02,07:01～08:00,0.0392,0.0350,0.0365,
新宿 (Shinjuku),2018-03-02,06:01～07:00,0.0392,0.0341,0.0367,
新宿 (Shinjuku),2018-03-02,05:01～06:00,0.0402,0.0347,0.0367,
新宿 (Shinjuku),2018-03-02,04:01～05:00,0.0437,0.0348,0.0372,
新宿 (Shinjuku),2018-03-02,03:01～04:00,0.0408,0.0345,0.0367,
新宿 (Shinjuku),2018-03-02,02:01～03:00,0.0397,0.0353,0.0367,
新宿 (Shinjuku),2018-03-02,01:01～02:00,0.0396,0.0341,0.0368,
新宿 (Shinjuku),2018-03-02,00:01～01:00,0.0408,0.0345,0.0368,
新宿 (Shinjuku),2018-03-01,23:01～24:00,0.0409,0.0340,0.0367,
新宿 (Shinjuku),2018-03-01,22:01～23:00,0.0396,0.0339,0.0366,
新宿 (Shinjuku),2018-03-01,21:01～22:00,0.0408,0.0344,0.0371,
新宿 (Shinjuku),2018-03-01,20:01～21:00,0.0399,0.0342,0.0367,
新宿 (Shinjuku),2018-03-01,19:01～20:00,0.0401,0.0344,0.0372,
新宿 (Shinjuku),2018-03-01,18:01～19:00,0.0398,0.0335,0.0369,
新宿 (Shinjuku),2018-03-01,17:01～18:00,0.0408,0.0344,0.0371,
新宿 (Shinjuku),2018-03-01,16:01～17:00,0.0404,0.0348,0.0365,
新宿 (Shinjuku),2018-03-01,15:01～16:00,0.0409,0.0347,0.0370,
新宿 (Shinjuku),2018-03-01,14:01～15:00,0.0397,0.0352,0.0369,
新宿 (Shinjuku),2018-03-01,13:01～14:00,0.0417,0.0356,0.0374,
新宿 (Shinjuku),2018-03-01,12:01～13:00,0.0412,0.0347,0.0372,
新宿 (Shinjuku),2018-03-01,11:01～12:00,0.0401,0.0353,0.0369,
新宿 (Shinjuku),2018-03-01,10:01～11:00,0.0412,0.0342,0.0369,
新宿 (Shinjuku),2018-03-01,09:01～10:00,0.0409,0.0352,0.0381,
新宿 (Shinjuku),2018-03-01,08:01～09:00,0.0441,0.0364,0.0407,
新宿 (Shinjuku),2018-03-01,07:01～08:00,0.0537,0.0415,0.0483,
新宿 (Shinjuku),2018-03-01,06:01～07:00,0.0549,0.0444,0.0493,
新宿 (Shinjuku),2018-03-01,05:01～06:00,0.0512,0.0439,0.0477,
新宿 (Shinjuku),2018-03-01,04:01～05:00,0.0534,0.0447,0.0488,
新宿 (Shinjuku),2018-03-01,03:01～04:00,0.0517,0.0446,0.0482,
新宿 (Shinjuku),2018-03-01,02:01～03:00,0.0491,0.0418,0.0453,
新宿 (Shinjuku),2018-03-01,01:01～02:00,0.0495,0.0423,0.0455,
新宿 (Shinjuku),2018-03-01,00:01～01:00,0.0500,0.0369,0.0451,
新宿 (Shinjuku),2018-02-28,23:01～24:00,0.0409,0.0355,0.0379,
新宿 (Shinjuku),2018-02-28,22:01～23:00,0.0406,0.0351,0.0372,
新宿 (Shinjuku),2018-02-28,21:01～22:00,0.0402,0.0345,0.0370,
新宿 (Shinjuku),2018-02-28,20:01～21:00,0.0405,0.0351,0.0368,
新宿 (Shinjuku),2018-02-28,19:01～20:00,0.0411,0.0347,0.0369,
新宿 (Shinjuku),2018-02-28,18:01～19:00,0.0404,0.0350,0.0369,
新宿 (Shinjuku),2018-02-28,17:01～18:00,0.0406,0.0347,0.0373,
新宿 (Shinjuku),2018-02-28,16:01～17:00,0.0408,0.0342,0.0370,
新宿 (Shinjuku),2018-02-28,15:01～16:00,0.0414,0.0350,0.0374,
新宿 (Shinjuku),2018-02-28,14:01～15:00,0.0401,0.0351,0.0370,
新宿 (Shinjuku),2018-02-28,13:01～14:00,0.0405,0.0353,0.0374,
新宿 (Shinjuku),2018-02-28,12:01～13:00,0.0413,0.0348,0.0375,
新宿 (Shinjuku),2018-02-28,11:01～12:00,0.0409,0.0348,0.0371,
新宿 (Shinjuku),2018-02-28,10:01～11:00,0.0412,0.0347,0.0372,
新宿 (Shinjuku),2018-02-28,09:01～10:00,0.0402,0.0348,0.0372,
新宿 (Shinjuku),2018-02-28,08:01～09:00,0.0401,0.0354,0.0375,
新宿 (Shinjuku),2018-02-28,07:01～08:00,0.0416,0.0355,0.0377,
新宿 (Shinjuku),2018-02-28,06:01～07:00,0.0422,0.0356,0.0381,
新宿 (Shinjuku),2018-02-28,05:01～06:00,0.0416,0.0357,0.0378,
新宿 (Shinjuku),2018-02-28,04:01～05:00,0.0396,0.0345,0.0368,
新宿 (Shinjuku),2018-02-28,03:01～04:00,0.0406,0.0352,0.0374,
新宿 (Shinjuku),2018-02-28,02:01～03:00,0.0402,0.0350,0.0368,
新宿 (Shinjuku),2018-02-28,01:01～02:00,0.0406,0.0353,0.0373,
新宿 (Shinjuku),2018-02-28,00:01～01:00,0.0417,0.0338,0.0371,
新宿 (Shinjuku),2018-02-27,23:01～24:00,0.0413,0.0353,0.0372,
新宿 (Shinjuku),2018-02-27,22:01～23:00,0.0398,0.0347,0.0368,
新宿 (Shinjuku),2018-02-27,21:01～22:00,0.0396,0.0349,0.0367,
新宿 (Shinjuku),2018-02-27,20:01～21:00,0.0409,0.0346,0.0367,
新宿 (Shinjuku),2018-02-27,19:01～20:00,0.0398,0.0353,0.0368,
新宿 (Shinjuku),2018-02-27,18:01～19:00,0.0405,0.0349,0.0367,
新宿 (Shinjuku),2018-02-27,17:01～18:00,0.0387,0.0339,0.0359,
新宿 (Shinjuku),2018-02-27,16:01～17:00,0.0392,0.0350,0.0366,
新宿 (Shinjuku),2018-02-27,15:01～16:00,0.0390,0.0342,0.0365,
新宿 (Shinjuku),2018-02-27,14:01～15:00,0.0404,0.0354,0.0371,
新宿 (Shinjuku),2018-02-27,13:01～14:00,0.0393,0.0351,0.0368,
新宿 (Shinjuku),2018-02-27,12:01～13:00,0.0407,0.0345,0.0368,
新宿 (Shinjuku),2018-02-27,11:01～12:00,0.0401,0.0352,0.0370,
新宿 (Shinjuku),2018-02-27,10:01～11:00,0.0405,0.0341,0.0370,
新宿 (Shinjuku),2018-02-27,09:01～10:00,0.0407,0.0350,0.0369,
新宿 (Shinjuku),2018-02-27,08:01～09:00,0.0398,0.0337,0.0367,
新宿 (Shinjuku),2018-02-27,07:01～08:00,0.0404,0.0343,0.0365,
新宿 (Shinjuku),2018-02-27,06:01～07:00,0.0409,0.0345,0.0367,
新宿 (Shinjuku),2018-02-27,05:01～06:00,0.0423,0.0341,0.0369,
新宿 (Shinjuku),2018-02-27,04:01～05:00,0.0387,0.0343,0.0367,
新宿 (Shinjuku),2018-02-27,03:01～04:00,0.0410,0.0346,0.0366,
新宿 (Shinjuku),2018-02-27,02:01～03:00,0.0403,0.0350,0.0368,
新宿 (Shinjuku),2018-02-27,01:01～02:00,0.0396,0.0344,0.0366,
新宿 (Shinjuku),2018-02-27,00:01～01:00,0.0404,0.0344,0.0366,
新宿 (Shinjuku),2018-02-26,23:01～24:00,0.0392,0.0349,0.0368,
新宿 (Shinjuku),2018-02-26,22:01～23:00,0.0407,0.0350,0.0366,
新宿 (Shinjuku),2018-02-26,21:01～22:00,0.0391,0.0348,0.0365,
新宿 (Shinjuku),2018-02-26,20:01～21:00,0.0405,0.0349,0.0368,
新宿 (Shinjuku),2018-02-26,19:01～20:00,0.0398,0.0339,0.0365,
新宿 (Shinjuku),2018-02-26,18:01～19:00,0.0399,0.0344,0.0365,
新宿 (Shinjuku),2018-02-26,17:01～18:00,0.0411,0.0344,0.0365,
新宿 (Shinjuku),2018-02-26,16:01～17:00,0.0391,0.0347,0.0364,
新宿 (Shinjuku),2018-02-26,15:01～16:00,0.0400,0.0342,0.0368,
新宿 (Shinjuku),2018-02-26,14:01～15:00,0.0392,0.0352,0.0369,
新宿 (Shinjuku),2018-02-26,13:01～14:00,0.0406,0.0345,0.0370,
新宿 (Shinjuku),2018-02-26,12:01～13:00,0.0404,0.0348,0.0369,
新宿 (Shinjuku),2018-02-26,11:01～12:00,0.0399,0.0348,0.0369,
新宿 (Shinjuku),2018-02-26,10:01～11:00,0.0399,0.0340,0.0369,
新宿 (Shinjuku),2018-02-26,09:01～10:00,0.0399,0.0349,0.0367,
新宿 (Shinjuku),2018-02-26,08:01～09:00,0.0393,0.0348,0.0371,
新宿 (Shinjuku),2018-02-26,07:01～08:00,0.0410,0.0350,0.0372,
新宿 (Shinjuku),2018-02-26,06:01～07:00,0.0402,0.0336,0.0372,
新宿 (Shinjuku),2018-02-26,05:01～06:00,0.0412,0.0347,0.0371,
新宿 (Shinjuku),2018-02-26,04:01～05:00,0.0402,0.0345,0.0367,
新宿 (Shinjuku),2018-02-26,03:01～04:00,0.0394,0.0343,0.0366,
新宿 (Shinjuku),2018-02-26,02:01～03:00,0.0393,0.0338,0.0367,
新宿 (Shinjuku),2018-02-26,01:01～02:00,0.0408,0.0351,0.0370,
新宿 (Shinjuku),2018-02-26,00:01～01:00,0.0389,0.0349,0.0367,
